{"data":{"norad_id":51631,"intl_designator":"2022-012K","name":"ONEWEB-0434","alt_names":[],"object_type":"PAYLOAD","status":"ACTIVE","operator":null,"country":"UK","launch_date":"2022-02-10","launch_site_code":"FRGUI","launch_vehicle":null,"mission":null,"orbit_class":"UNKNOWN","rcs_meters":null,"size_class":null,"mass_kg":null,"dimensions":null,"purposes":["comms"],"wikipedia_slug":null,"has_3d_model":false,"image_url":null,"decayed_at":null,"tle_current":{"epoch":"2026-05-25T03:03:32.702976Z","epoch_age_seconds":63784,"freshness":"FRESH","line1":"1 51631U 22012K   26145.12746184 -.00000556  00000+0 -16286-2 0  9996","line2":"2 51631  87.8858  40.8814 0002449  84.6138 275.5269 13.10374735206307","mean_motion":13.10374735,"eccentricity":0.0002449,"inclination_deg":87.8858,"raan_deg":40.8814,"arg_perigee_deg":84.6138,"mean_anomaly_deg":275.5269,"bstar":-0.0016286,"rev_number":20630,"period_min":109.8922286532,"perigee_km":1219.8485323551,"apogee_km":1223.5709372859,"semimajor_km":7599.8467348205,"source":"CELESTRAK","updated_at":"2026-05-25T13:38:22.577787Z"}}}